Flag for Portugal Weather past 2 weeks in Portimão, Portugal

Now
64 °F

Clear.


Feels Like: 64 °F
Forecast: 60 / 80 °F
Wind: 7 mph from West

Location: Faro / Aeroporto

Current Time: Jul 29, 2014 at 2:44:58 AM

Latest Report: Jul 29, 2014 at 2:00 AM


Visibility: 10 mi

Pressure: 29.92 "Hg

Humidity: 94%

Dew point: 63 °F

Location of PortimãoLocation

Historic Weather in Portimão — Graph

°F

Portimão temperature yesterday

Maximum temperature yesterday: 73 °F (at 3:30 PM)
Minimum temperature yesterday: 61 °F (at 7:00 AM)
Average temperature yesterday: 68 °F

Past Weeks' High & Low Weather Summary

 TemperatureHumidityPressure
High88 °F (Jul 23, 7:30 PM)100% (Jul 19, 6:30 AM)30.12 "Hg (Jul 19, 6:30 AM)
Low61 °F (Jul 28, 7:00 AM)24% (Jul 23, 12:00 AM)29.83 "Hg (Jul 24, 5:00 PM)
Average73 °F67%29.97 "Hg
* Reported Jul 14 1:00 AM — Jul 29 1:00 AM, Portimão, Weather by CustomWeather, © 2014

Note: Actual official high and low records may vary slightly from our data, if they occured in-between our weather recording intervals... More about our weather records

Advertising

Portimão weather history for previous 24 hours

 ConditionsComfort  
Time TempWeatherWind HumidityBarometerVisibility
1:00 AM
Jul 29
66 °FClear.8 mph88%29.95 "Hg10 mi
12:30 AM66 °FClear.8 mph88%29.95 "Hg10 mi
12:00 AM66 °FClear.9 mph88%29.95 "Hg10 mi
11:30 PM
Jul 28
66 °FClear.9 mph88%29.95 "Hg10 mi
11:00 PM66 °FClear.10 mph88%29.95 "Hg10 mi
10:30 PM68 °FClear.14 mph88%29.95 "Hg10 mi
9:30 PM68 °FSunny.15 mph83%29.95 "Hg10 mi
9:00 PM68 °FSunny.15 mph83%29.95 "Hg10 mi
8:30 PM68 °FSunny.17 mph83%29.95 "Hg10 mi
8:00 PM70 °FSunny.20 mph73%29.95 "Hg10 mi
7:30 PM70 °FSunny.20 mph78%29.95 "Hg10 mi
7:00 PM72 °FSunny.20 mph73%29.95 "Hg10 mi
6:30 PM72 °FSunny.21 mph73%29.95 "Hg10 mi
6:00 PM72 °FSunny.21 mph73%29.95 "Hg10 mi
5:30 PM72 °FSunny.18 mph69%29.98 "Hg10 mi
5:00 PM73 °FSunny.18 mph65%29.98 "Hg10 mi
4:30 PM72 °FSunny.17 mph73%29.98 "Hg10 mi
4:00 PM73 °FSunny.16 mph69%29.98 "Hg10 mi
3:30 PM73 °FSunny.15 mph74%30.01 "Hg10 mi
3:00 PM72 °FSunny.16 mph73%30.01 "Hg10 mi
2:30 PM72 °FSunny.15 mph78%30.01 "Hg10 mi
2:00 PM72 °FSunny.14 mph78%30.04 "Hg10 mi
1:30 PM72 °FSunny.13 mph73%30.04 "Hg10 mi
1:00 PM72 °FPassing clouds.10 mph73%30.04 "HgN/A
12:30 PM72 °FPassing clouds.8 mph73%30.04 "HgN/A
12:00 PM70 °FPassing clouds.9 mph83%30.04 "HgN/A
11:30 AM70 °FPassing clouds.6 mph83%30.04 "HgN/A
11:00 AM72 °FScattered clouds.6 mph78%30.04 "HgN/A
10:30 AM72 °FScattered clouds.7 mph78%30.04 "HgN/A
10:00 AM70 °FSunny.7 mph83%30.04 "Hg10 mi
9:30 AM70 °FSunny.6 mph78%30.04 "Hg10 mi
9:00 AM70 °FPassing clouds.3 mph78%30.04 "HgN/A
8:30 AM68 °FSunny.1 mph78%30.04 "Hg10 mi
8:00 AM64 °FSunny.2 mph83%30.01 "Hg10 mi
7:30 AM63 °FPassing clouds.5 mph88%30.01 "HgN/A
7:00 AM61 °FPassing clouds.3 mph94%30.01 "HgN/A
6:30 AM63 °FClear.5 mph88%30.01 "Hg10 mi
6:00 AM63 °FClear.6 mph88%30.01 "Hg10 mi
5:30 AM63 °FClear.6 mph88%30.01 "Hg10 mi
5:00 AM63 °FClear.5 mph88%30.01 "Hg10 mi
4:30 AM63 °FClear.5 mph88%30.01 "Hg10 mi
4:00 AM64 °FClear.5 mph83%30.01 "Hg10 mi
3:30 AM63 °FClear.3 mph88%30.01 "Hg10 mi
3:00 AM64 °FClear.5 mph88%30.01 "Hg10 mi
2:30 AM64 °FClear.5 mph88%30.01 "Hg10 mi
2:00 AM66 °FClear.8 mph83%30.01 "Hg10 mi
Weather by CustomWeather, © 2014

See weather overviewHow to use our weather pages